Drachten Airfield

EHDR · Frisia, Paesi Bassi

2 ottobre 2022

Tempo Codice Tempo metereologico Temp. Vista Base nuvolosa Vento METAR/SPECI
05:25
V
11 °C 10 km+ 3.900 ft 230° 230° 9 kt METAR EHGG 020325Z AUTO 23009KT 9999 FEW030 SCT035 BKN039 11/10 Q1011
04:55
V
11 °C 10 km+ 3.900 ft 230° 230° 8 kt METAR EHGG 020255Z AUTO 23008KT 9999 FEW028 SCT031 BKN039 11/10 Q1011
04:25
V
11 °C 10 km+ - 210° 210° 9 kt METAR EHGG 020225Z AUTO 21009KT 170V230 9999 NSC 11/10 Q1011
03:55
V
9 °C 10 km+ - 230° 230° 7 kt METAR EHGG 020155Z AUTO 23007KT 9999 SCT029 09/09 Q1011
03:25
V
9 °C 10 km+ - 230° 230° 8 kt METAR EHGG 020125Z AUTO 23008KT 9999 NCD 09/09 Q1011
02:55
V
9 °C 10 km+ - 220° 220° 6 kt METAR EHGG 020055Z AUTO 22006KT 9999 NCD 09/09 Q1010
02:25
M
11 °C 10 km+ 2.900 ft Var Var 4 kt METAR EHGG 020025Z AUTO VRB04KT 9999 FEW015CB BKN029 BKN035 BKN046 11/11 Q1011
01:55
V
11 °C 10 km+ - 200° 200° 7 kt METAR EHGG 012355Z AUTO 20007KT 9999 TS FEW015CB 11/10 Q1010 REDZ
01:25
V
12 °C 10 km+ 3.500 ft 250° 250° 6 kt METAR EHGG 012325Z AUTO 25006KT 220V280 9999 -RA FEW015CB BKN035 OVC040 12/11 Q1010
00:55
V
12 °C 10 km+ - 220° 220° 10 kt METAR EHGG 012255Z AUTO 22010KT 9999 FEW017 12/10 Q1010
00:25
V
13 °C 10 km+ - 300° 300° 13 kt METAR EHGG 012225Z AUTO 30013KT 260V340 9999 -RA FEW011 SCT014 FEW015CB 13/11 Q1010 RETS

1 ottobre 2022

Tempo Codice Tempo metereologico Temp. Vista Base nuvolosa Vento METAR/SPECI
23:55
V
11 °C 10 km+ - 230° 230° 8 kt METAR EHGG 012155Z AUTO 23008KT 9999 TS FEW015CB 11/09 Q1009
23:25
V
12 °C 10 km+ - 250° 250° 9 kt METAR EHGG 012125Z AUTO 25009KT 210V280 9999 FEW015CB 12/10 Q1009
22:55
V
11 °C 10 km+ - 220° 220° 8 kt METAR EHGG 012055Z AUTO 22008KT 9999 FEW015CB SCT039 11/10 Q1009 TEMPO 7000 SHRA SCT020CB
22:25
V
10 °C 10 km+ - 220° 220° 6 kt METAR EHGG 012025Z AUTO 22006KT 9999 FEW039 10/09 Q1009 NOSIG
21:55
V
10 °C 10 km+ - 220° 220° 8 kt METAR EHGG 011955Z AUTO 22008KT 9999 NSC 10/09 Q1008 NOSIG
21:25
V
10 °C 10 km+ - 230° 230° 8 kt METAR EHGG 011925Z AUTO 23008KT 9999 NCD 10/09 Q1008 NOSIG
20:55
V
11 °C 10 km+ - 230° 230° 7 kt METAR EHGG 011855Z AUTO 23007KT 9999 NCD 11/09 Q1008 NOSIG
20:25
V
12 °C 10 km+ - 240° 240° 8 kt METAR EHGG 011825Z AUTO 24008KT 210V270 9999 FEW029 12/09 Q1007 NOSIG
19:55
V
13 °C 10 km+ - 240° 240° 9 kt METAR EHGG 011755Z AUTO 24009KT 9999 NCD 13/10 Q1007 NOSIG
19:25
V
13 °C 10 km+ - 250° 250° 7 kt METAR EHGG 011725Z AUTO 25007KT 230V290 9999 NCD 13/10 Q1006 NOSIG
18:55
V
14 °C 10 km+ - 260° 260° 10 kt METAR EHGG 011655Z AUTO 26010KT 230V290 9999 NCD 14/10 Q1006 NOSIG
18:25
V
15 °C 10 km+ - 270° 270° 12 kt METAR EHGG 011625Z AUTO 27012KT 220V310 9999 NSC 15/10 Q1005 NOSIG
17:55
V
15 °C 10 km+ - 270° 270° 9 kt METAR EHGG 011555Z AUTO 27009KT 230V300 9999 SCT028 SCT035 15/11 Q1005 TEMPO 7000 SHRA FEW020CB
17:25
V
15 °C 10 km+ - 280° 280° 7 kt METAR EHGG 011525Z AUTO 28007KT 260V350 9999 NCD 15/11 Q1005 TEMPO 7000 SHRA FEW020CB
16:55
V
14 °C 10 km+ 3.200 ft 300° 300° 7 kt METAR EHGG 011455Z AUTO 30007KT 260V340 9999 -RA FEW024 SCT027 BKN032 14/11 Q1004 TEMPO 7000 SHRA FEW020CB
16:25
M
14 °C 10 km+ 2.300 ft 300° 300° 10 kt METAR EHGG 011425Z AUTO 30010KT 260V350 9999 -RA FEW015CB BKN023 BKN027 BKN031 14/11 Q1004 TEMPO 7000 SHRA FEW020CB
15:55
V
16 °C 10 km+ - 270° 270° 9 - 19 kt METAR EHGG 011355Z AUTO 27009G19KT 220V330 9999 FEW015CB 16/12 Q1003 RERA TEMPO 7000 SHRA FEW020CB
15:25
I
13 °C 2 km 2.700 ft 290° 290° 13 kt METAR EHGG 011325Z AUTO 29013KT 240V340 2000 +RA FEW015CB SCT023 BKN027 13/10 Q1003 TEMPO 7000 SHRA FEW020CB
14:55
M
16 °C 10 km+ 2.400 ft 280° 280° 12 kt METAR EHGG 011255Z AUTO 28012KT 240V330 9999 SCT020 BKN024 BKN028 16/11 Q1002 TEMPO 7000 SHRA FEW020CB
14:25
M
16 °C 10 km+ 2.700 ft 270° 270° 10 kt METAR EHGG 011225Z AUTO 27010KT 230V310 9999 -RA FEW015CB SCT022 BKN027 16/12 Q1002 TEMPO 7000 SHRA FEW020CB
13:55
M
16 °C 10 km+ 2.100 ft 260° 260° 9 kt METAR EHGG 011155Z AUTO 26009KT 220V300 9999 SCT015 SCT018 BKN021 16/13 Q1002 TEMPO 7000 SHRA FEW020CB
13:25
V
14 °C 10 km+ - 250° 250° 9 kt METAR EHGG 011125Z AUTO 25009KT 200V270 9999 -RA FEW008 SCT012 FEW015CB 14/13 Q1002 TEMPO 7000 SHRA FEW020CB
12:55
V
13 °C 10 km+ 3.200 ft 260° 260° 7 kt METAR EHGG 011055Z AUTO 26007KT 210V300 9999 SCT015CB BKN032 13/12 Q1001 RERA TEMPO 7000 SHRA FEW020CB
12:25
I
12 °C 2,2 km 1.600 ft 280° 280° 11 - 26 kt METAR EHGG 011025Z AUTO 28011G26KT 240V330 2200 +SHRA SCT013 SCT015CB BKN016 OVC019 12/11 Q1001 TEMPO 4000 TSRA FEW020CB
11:55
V
15 °C 10 km+ - 240° 240° 11 kt METAR EHGG 010955Z AUTO 24011KT 220V280 9999 FEW044 15/12 Q1000 TEMPO 7000 SHRA FEW020CB
11:25
M
16 °C 10 km+ 1.400 ft 240° 240° 11 kt METAR EHGG 010925Z AUTO 24011KT 9999 SCT011 BKN014 BKN017 16/13 Q1000 TEMPO 7000 SHRA FEW020CB
10:55
V
16 °C 10 km+ - 240° 240° 11 kt METAR EHGG 010855Z AUTO 24011KT 200V270 9999 FEW028 16/14 Q0999 TEMPO 7000 SHRA FEW020CB
10:25
V
14 °C 10 km+ - 230° 230° 12 kt METAR EHGG 010825Z AUTO 23012KT 200V260 9999 SCT023 14/13 Q0999 NOSIG
09:55
V
14 °C 10 km+ - 230° 230° 10 kt METAR EHGG 010755Z AUTO 23010KT 9999 NCD 14/13 Q0999 TEMPO 7000 SHRA FEW020CB BECMG BKN018
09:25
M
13 °C 10 km+ 1.300 ft 230° 230° 10 kt METAR EHGG 010725Z AUTO 23010KT 9999 FEW006 SCT007 BKN013 FEW015CB 13/13 Q0998 TEMPO 7000 SHRA FEW020CB BECMG BKN018
08:55
M
13 °C 10 km+ 1.500 ft 230° 230° 9 kt METAR EHGG 010655Z AUTO 23009KT 9999 FEW001 SCT006 BKN015 13/12 Q0998 TEMPO 7000 SHRA FEW020CB BECMG SCT018
08:25
M
12 °C 10 km+ 1.600 ft 220° 220° 11 kt METAR EHGG 010625Z AUTO 22011KT 190V250 9999 FEW009 BKN016 BKN019 12/11 Q0998 RERADZ TEMPO 7000 SHRA FEW020CB
07:55
I
12 °C 10 km+ 900 ft 210° 210° 11 kt METAR EHGG 010555Z AUTO 21011KT 180V240 9999 -RA FEW006 SCT007 BKN009 12/11 Q0997 BECMG BKN015
07:25
I
12 °C 10 km+ 800 ft 210° 210° 14 kt METAR EHGG 010525Z AUTO 21014KT 9999 SCT007/// BKN008/// OVC009/// 12/11 Q0997 BECMG BKN015
06:55
I
11 °C 10 km+ 900 ft 200° 200° 16 kt METAR EHGG 010455Z AUTO 20016KT 170V230 9999 FEW007 SCT008 BKN009 11/10 Q0997 TEMPO 8000
06:25
M
11 °C 6 km 1.000 ft 200° 200° 17 kt METAR EHGG 010425Z AUTO 20017KT 170V240 6000 -SHRA FEW007 SCT009 BKN010 11/10 Q0997 REDZ BECMG RADZ BKN008 TEMPO 8000
05:55
M
11 °C 10 km+ 1.200 ft 190° 190° 15 kt METAR EHGG 010355Z AUTO 19015KT 160V230 9999 -RA FEW008 SCT010 BKN012 11/10 Q0997 REDZRA
05:25
M
11 °C 8 km 1.000 ft 190° 190° 15 kt METAR EHGG 010325Z AUTO 19015KT 140V220 8000 +DZ FEW007 SCT009 OVC010 11/10 Q0997
04:55
M
11 °C 10 km+ 1.000 ft 180° 180° 15 kt METAR EHGG 010255Z AUTO 18015KT 140V220 9999 SHRA FEW008 SCT009 BKN010 FEW015CB 11/10 Q0998
04:25
M
11 °C 8 km 1.000 ft 180° 180° 14 kt METAR EHGG 010225Z AUTO 18014KT 140V220 8000 RA FEW009 BKN010 BKN014 SCT015CB 11/10 Q0998
03:55
M
11 °C 9 km 1.100 ft 170° 170° 13 kt METAR EHGG 010155Z AUTO 17013KT 120V210 9000 RA FEW008 SCT009 BKN011 SCT015CB 11/10 Q0999
03:25
M
11 °C 10 km+ 2.800 ft 180° 180° 14 kt METAR EHGG 010125Z AUTO 18014KT 140V210 9999 SHRA FEW009 FEW015CB SCT016 BKN028 11/10 Q1000
02:55
V
11 °C 10 km+ 4.800 ft 180° 180° 14 kt METAR EHGG 010055Z AUTO 18014KT 140V220 9999 -SHRA FEW015 SCT043 BKN048 11/09 Q1000
02:25
V
11 °C 10 km+ - 170° 170° 12 kt METAR EHGG 010025Z AUTO 17012KT 140V220 9999 -RA FEW015CB 11/09 Q1001 RERA
01:55
V
11 °C 10 km+ - 180° 180° 11 kt METAR EHGG 302355Z AUTO 18011KT 140V230 9999 -RA FEW015CB 11/09 Q1002
01:25
V
11 °C 10 km+ - 190° 190° 11 kt METAR EHGG 302325Z AUTO 19011KT 150V220 9999 -RA FEW045 11/09 Q1003
00:55
V
12 °C 10 km+ - 200° 200° 11 kt METAR EHGG 302255Z AUTO 20011KT 170V240 9999 -RA FEW048 12/09 Q1003 REDZRA
00:25
V
13 °C 10 km+ 4.600 ft 190° 190° 12 kt METAR EHGG 302225Z AUTO 19012KT 150V230 9999 DZRA OVC046 13/08 Q1003

30 settembre 2022

Tempo Codice Tempo metereologico Temp. Vista Base nuvolosa Vento METAR/SPECI
23:55
V
13 °C 10 km+ - 180° 180° 12 kt METAR EHGG 302155Z AUTO 18012KT 150V220 9999 NSC 13/08 Q1003
23:25
V
13 °C 10 km+ - 180° 180° 11 kt METAR EHGG 302125Z AUTO 18011KT 150V210 9999 NSC 13/08 Q1003
22:55
V
13 °C 10 km+ - 180° 180° 13 kt METAR EHGG 302055Z AUTO 18013KT 150V220 9999 NSC 13/08 Q1003
22:25
V
13 °C 10 km+ - 180° 180° 11 kt METAR EHGG 302025Z AUTO 18011KT 150V210 9999 NSC 13/08 Q1004 NOSIG
21:55
V
12 °C 10 km+ - 170° 170° 10 kt METAR EHGG 301955Z AUTO 17010KT 140V210 9999 NSC 12/08 Q1004 NOSIG
21:25
V
12 °C 10 km+ - 170° 170° 9 kt METAR EHGG 301925Z AUTO 17009KT 140V200 9999 NSC 12/08 Q1005 NOSIG
20:55
V
12 °C 10 km+ - 170° 170° 8 kt METAR EHGG 301855Z AUTO 17008KT 140V200 9999 NSC 12/08 Q1005 NOSIG
20:25
V
13 °C 10 km+ - 170° 170° 8 kt METAR EHGG 301825Z AUTO 17008KT 140V200 9999 NSC 13/08 Q1006 NOSIG
19:55
V
13 °C 10 km+ - 170° 170° 7 kt METAR EHGG 301755Z AUTO 17007KT 140V200 9999 NSC 13/08 Q1006 NOSIG
19:25
V
14 °C 10 km+ - 180° 180° 8 kt METAR EHGG 301725Z AUTO 18008KT 130V220 9999 FEW036 14/08 Q1006 NOSIG
18:55
V
14 °C 10 km+ - 190° 190° 8 kt METAR EHGG 301655Z AUTO 19008KT 160V220 9999 NSC 14/08 Q1006 NOSIG
18:25
V
15 °C 10 km+ 4.300 ft 190° 190° 10 kt METAR EHGG 301625Z AUTO 19010KT 9999 SCT038 BKN043 15/08 Q1006 NOSIG
17:55
V
15 °C 10 km+ 3.900 ft 190° 190° 10 kt METAR EHGG 301555Z AUTO 19010KT 160V230 9999 BKN039 BKN044 15/08 Q1006 NOSIG
17:25
V
16 °C 10 km+ - 200° 200° 10 kt METAR EHGG 301525Z AUTO 20010KT 160V230 9999 FEW039 SCT043 16/08 Q1006 NOSIG
16:55
V
16 °C 10 km+ 4.600 ft 190° 190° 11 kt METAR EHGG 301455Z AUTO 19011KT 160V220 9999 SCT040 BKN046 16/08 Q1006 NOSIG
16:25
V
17 °C 10 km+ - 200° 200° 10 kt METAR EHGG 301425Z AUTO 20010KT 170V240 9999 SCT038 17/09 Q1007 NOSIG
15:55
V
16 °C 10 km+ 3.900 ft 200° 200° 10 kt METAR EHGG 301355Z AUTO 20010KT 170V240 9999 SCT034 BKN039 BKN047 16/09 Q1007 NOSIG
15:25
V
16 °C 10 km+ 3.700 ft 200° 200° 10 kt METAR EHGG 301325Z AUTO 20010KT 170V230 9999 SCT032 BKN037 BKN045 16/09 Q1007 NOSIG
14:55
V
16 °C 10 km+ 3.400 ft 190° 190° 12 kt METAR EHGG 301255Z AUTO 19012KT 160V230 9999 BKN034 BKN045 16/09 Q1007 NOSIG
14:25
V
16 °C 10 km+ - 200° 200° 12 kt METAR EHGG 301225Z AUTO 20012KT 170V230 9999 FEW035 16/08 Q1007 NOSIG
13:55
V
16 °C 10 km+ - 220° 220° 11 kt METAR EHGG 301155Z AUTO 22011KT 180V250 9999 FEW031 16/09 Q1008 NOSIG
13:25
V
16 °C 10 km+ - 210° 210° 11 kt METAR EHGG 301125Z AUTO 21011KT 170V250 9999 FEW025 16/09 Q1008 NOSIG
12:55
V
15 °C 10 km+ - 210° 210° 10 kt METAR EHGG 301055Z AUTO 21010KT 170V240 9999 FEW021 15/10 Q1008 NOSIG
12:25
V
14 °C 10 km+ - 200° 200° 8 kt METAR EHGG 301025Z AUTO 20008KT 170V240 9999 FEW012 14/11 Q1008 NOSIG
11:55
V
12 °C 10 km+ - 200° 200° 6 kt METAR EHGG 300955Z AUTO 20006KT 170V240 9999 NCD 12/11 Q1009 NOSIG
11:25
L
11 °C 5 km 100 ft 210° 210° 6 kt METAR EHGG 300925Z AUTO 21006KT 5000 OVC001 11/10 Q1008 BECMG CAVOK TEMPO 2500 BR
10:55
L
11 °C 9 km 100 ft 220° 220° 7 kt METAR EHGG 300855Z AUTO 22007KT 190V250 9000 OVC001 11/10 Q1008 BECMG 0800 FG
10:25
V
10 °C 10 km+ - 210° 210° 6 kt METAR EHGG 300825Z AUTO 21006KT 170V240 9999 NCD 10/09 Q1008 BECMG BKN003
09:55
V
9 °C 10 km+ - 210° 210° 5 kt METAR EHGG 300755Z AUTO 21005KT 9999 NCD 09/09 Q1008 BECMG BKN002
09:25
M
8 °C 7 km - 180° 180° 3 kt METAR EHGG 300725Z AUTO 18003KT 150V210 7000 NCD 08/07 Q1008 BECMG 0900 FG BKN002
08:55
I
6 °C 2,4 km - 200° 200° 4 kt METAR EHGG 300655Z AUTO 20004KT 2400 BR BKN000 06/06 Q1008 BECMG CAVOK TEMPO 0500 FG
08:25
L
3 °C 300 m - 220° 220° 4 kt METAR EHGG 300625Z AUTO 22004KT 0300 R23/0600U FG FEW000 03/03 Q1008 TEMPO 0450
07:55
L
2 °C 250 m - 190° 190° 1 kt METAR EHGG 300555Z AUTO 19001KT 0250 R23/0375N FG NCD 02/02 Q1008 TEMPO 0450
07:25
L
2 °C 300 m - 150° 150° 2 kt METAR EHGG 300525Z AUTO 15002KT 0300 R23/0375D FG VV000 02/02 Q1008 TEMPO 0450
06:55
L
2 °C 500 m - 190° 190° 3 kt METAR EHGG 300455Z AUTO 19003KT 0500 R23/0700U FG BKN000 02/02 Q1008 TEMPO 0200
06:25
L
3 °C 550 m - Var Var 2 kt METAR EHGG 300425Z AUTO VRB02KT 0550 R23/0650N FG NCD 03/02 Q1007 TEMPO 0200
05:55
L
3 °C 350 m - 170° 170° 1 kt METAR EHGG 300355Z AUTO 17001KT 0350 R23/0500N FG SCT000 03/03 Q1007
05:25
L
4 °C 350 m - Var Var 2 kt METAR EHGG 300325Z AUTO VRB02KT 0350 R23/0450D FG VV000 04/04 Q1007
04:55
L
4 °C 450 m - Var Var 2 kt METAR EHGG 300255Z AUTO VRB02KT 0450 R23/0650N FG NCD 04/04 Q1007
04:25
L
4 °C 550 m - 210° 210° 4 kt METAR EHGG 300225Z AUTO 21004KT 0550 R23/0650D FG VV000 04/04 Q1007
03:55
L
4 °C 300 m - 220° 220° 3 kt METAR EHGG 300155Z AUTO 22003KT 170V230 0300 R23/0400N FG OVC000 04/04 Q1007
03:25
L
3 °C 200 m - 170° 170° 2 kt METAR EHGG 300125Z AUTO 17002KT 0200 R23/0250D FG VV000 03/03 Q1007
02:55
L
4 °C 350 m - 170° 170° 1 kt METAR EHGG 300055Z AUTO 17001KT 0350 R23/0450D FG BKN000 04/04 Q1007
02:25
L
4 °C 550 m - 220° 220° 3 kt METAR EHGG 300025Z AUTO 22003KT 0550 R23/1100U FG FEW000/// 04/04 Q1007
01:55
L
4 °C 500 m - 230° 230° 3 kt METAR EHGG 292355Z AUTO 23003KT 0500 R23/1200U FG NCD 04/04 Q1007
01:25
L
6 °C 300 m - 340° 340° 1 kt METAR EHGG 292325Z AUTO 34001KT 0300 R23/0400U FG FEW000 06/05 Q1006
00:55
L
5 °C 550 m - Var Var 1 kt METAR EHGG 292255Z AUTO VRB01KT 0550 R23/0700D FG NSC 05/05 Q1007
00:25
L
6 °C 650 m - 230° 230° 2 kt METAR EHGG 292225Z AUTO 23002KT 0650 R23/1600D FG NSC 06/06 Q1006

29 settembre 2022

Tempo Codice Tempo metereologico Temp. Vista Base nuvolosa Vento METAR/SPECI
23:55
I
6 °C 3,6 km - 210° 210° 2 kt METAR EHGG 292155Z AUTO 21002KT 3600 BR FEW000 06/05 Q1006
Dati più vecchi

Noi e le terze parti seguiamo il tuo comportamento in internet sul nostro sito web con i cookie. Se continui, riteniamo che tu sia d'accordo con la nostra politica sui cookie. Per saperne di più